Lake Clear, NY

2:37 AM EDT on September 28, 2016 (GMT -0400)
Adirondack Regional

Weather History for KSLK - January, 2013

Change the Weather History Date:

Monday, January 14, 2013

  Actual Average Record
Temperature  
Mean Temperature 38 °F 13 °F  
Max Temperature 49 °F 25 °F 59 °F (2005)
Min Temperature 27 °F 2 °F -32 °F (1957)
Degree Days  
Heating Degree Days 27 52  
Month to date heating degree days 626 719  
Since 1 July heating degree days 4000 4418  
Moisture  
Dew Point 33 °F    
Average Humidity 80    
Maximum Humidity 100    
Minimum Humidity 59    
Precipitation  
Precipitation T in 0.06 in 0.80 in (1992)
Month to date precipitation 0.20 0.97  
Year to date precipitation 0.20 0.97  
Sea Level Pressure  
Sea Level Pressure 29.99 in    
Wind  
Wind Speed 9 mph (WSW)    
Max Wind Speed 20 mph    
Max Gust Speed 36 mph    
Visibility 7 miles    
Events Fog , Rain , Snow    
T = Trace of Precipitation, MM = Missing Value Source: NWS Daily Summary

Daily Weather History Graph

Daily Weather History Graph

Search for Another Location

Airport or City:

Trip Planner

Search our weather history database for the weather conditions in past years. The results will help you decide how hot, cold, wet, or windy it might be!

Date:

Astronomy

Jan. 14, 2013 Rise Set
Actual Time 7:29 AM EST 4:42 PM EST
Civil Twilight 6:57 AM EST 5:14 PM EST
Nautical Twilight 6:21 AM EST 5:50 PM EST
Astronomical Twilight 5:46 AM EST 6:25 PM EST
Moon 8:53 AM EST (1/14) 8:35 PM EST (1/14)
Length of Visible Light 10h 17m
Length of Day
9h 12m
Waxing Crescent, 11% of the Moon is Illuminated
Jan 14
Waxing Crescent
Jan 18
First Quarter
Jan 26
Full
Feb 3
Last Quarter
Feb 10
New

Hourly Weather History & Observations

Time (EST) Temp. Windchill Dew Point Humidity Pressure Visibility Wind Dir Wind Speed Gust Speed Precip Events Conditions
12:44 AM 44.6 °F 43.1 °F 44.6 °F 100% 29.80 in 1.8 mi WSW 3.5 mph - N/A   Overcast
1:12 AM 46.4 °F - 46.4 °F 100% 29.79 in 0.5 mi Calm Calm - N/A Fog Fog
1:22 AM 44.6 °F - 42.8 °F 93% 29.78 in 0.2 mi Calm Calm - N/A Fog Fog
1:35 AM 44.6 °F - 42.8 °F 93% 29.78 in 0.5 mi Calm Calm - N/A Fog Fog
1:51 AM 41.0 °F - 41.0 °F 100% 29.78 in 0.2 mi Calm Calm - N/A Fog Fog
2:07 AM 42.8 °F - 42.8 °F 100% 29.74 in 0.5 mi Calm Calm - N/A Fog Fog
2:23 AM 44.6 °F 43.1 °F 42.8 °F 93% 29.73 in 2.0 mi SSW 3.5 mph - N/A   Partly Cloudy
2:32 AM 44.6 °F - 44.6 °F 100% 29.74 in 5.0 mi Calm Calm - N/A   Scattered Clouds
2:51 AM 43.0 °F 40.3 °F 43.0 °F 100% 29.76 in 2.5 mi SW 4.6 mph - N/A   Overcast
3:14 AM 42.8 °F 37.5 °F 41.0 °F 93% 29.72 in 3.0 mi SSW 9.2 mph - N/A   Overcast
3:51 AM 48.0 °F - 46.0 °F 93% 29.75 in 10.0 mi SW 13.8 mph - N/A   Overcast
4:51 AM 48.0 °F - 46.0 °F 93% 29.76 in 10.0 mi WSW 10.4 mph - N/A   Overcast
5:21 AM 46.4 °F 41.5 °F 44.6 °F 93% 29.77 in 10.0 mi WSW 10.4 mph 19.6 mph N/A   Overcast
5:38 AM 48.2 °F - 46.4 °F 93% 29.81 in 9.0 mi WSW 18.4 mph 35.7 mph N/A   Overcast
5:51 AM 46.9 °F - 45.0 °F 93% 29.83 in 6.0 mi WSW 16.1 mph 29.9 mph 0.00 in Rain Light Rain
5:59 AM 46.4 °F 41.9 °F 44.6 °F 93% 29.82 in 6.0 mi WSW 9.2 mph 24.2 mph N/A   Overcast
6:51 AM 44.1 °F 38.1 °F 42.1 °F 93% 29.89 in 10.0 mi WSW 11.5 mph 20.7 mph 0.00 in   Overcast
7:51 AM 41.0 °F 33.9 °F 37.0 °F 86% 29.97 in 10.0 mi WSW 12.7 mph 29.9 mph N/A   Overcast
8:51 AM 36.0 °F 27.1 °F 33.1 °F 89% 30.04 in 10.0 mi WSW 13.8 mph 24.2 mph N/A   Overcast
9:10 AM 35.6 °F 27.1 °F 32.0 °F 87% 30.02 in 10.0 mi WSW 12.7 mph 23.0 mph N/A   Overcast
9:51 AM 34.0 °F 27.2 °F 32.0 °F 92% 30.08 in 4.0 mi West 8.1 mph 17.3 mph 0.00 in Snow Light Snow
9:58 AM 33.8 °F 25.3 °F 32.0 °F 93% 30.04 in 5.0 mi West 11.5 mph 21.9 mph 0.00 in Snow Light Snow
10:51 AM 33.1 °F 23.4 °F 26.1 °F 75% 30.11 in 10.0 mi WSW 13.8 mph 23.0 mph 0.00 in   Mostly Cloudy
11:51 AM 32.0 °F 23.0 °F 26.1 °F 79% 30.11 in 5.0 mi West 11.5 mph 21.9 mph 0.00 in Snow Light Snow
11:56 AM 32.0 °F 22.5 °F 26.6 °F 80% 30.07 in 1.8 mi West 12.7 mph 21.9 mph 0.00 in Snow Light Snow
12:05 PM 32.0 °F 24.2 °F 26.6 °F 80% 30.07 in 3.0 mi West 9.2 mph 18.4 mph 0.00 in Snow Light Snow
12:51 PM 33.1 °F 22.6 °F 21.9 °F 64% 30.13 in 10.0 mi West 16.1 mph 27.6 mph 0.00 in   Mostly Cloudy
2:47 PM 32.0 °F 24.2 °F 21.2 °F 64% 30.13 in 10.0 mi WSW 9.2 mph 16.1 mph N/A   Overcast
2:51 PM 32.0 °F 23.0 °F 21.0 °F 64% 30.17 in 10.0 mi WSW 11.5 mph 17.3 mph N/A   Overcast
3:51 PM 32.0 °F 23.6 °F 19.9 °F 61% 30.19 in 10.0 mi WSW 10.4 mph - N/A   Overcast
4:51 PM 30.9 °F 25.2 °F 19.9 °F 64% 30.18 in 10.0 mi WSW 5.8 mph - N/A   Overcast
5:51 PM 30.0 °F 23.2 °F 21.0 °F 69% 30.20 in 10.0 mi WSW 6.9 mph - N/A   Overcast
6:51 PM 28.9 °F 21.9 °F 19.9 °F 69% 30.24 in 10.0 mi West 6.9 mph - N/A   Overcast
7:51 PM 28.9 °F 21.1 °F 19.9 °F 69% 30.25 in 10.0 mi WSW 8.1 mph - N/A   Overcast
8:37 PM 28.4 °F 20.4 °F 19.4 °F 69% 30.22 in 10.0 mi WSW 8.1 mph 19.6 mph N/A   Overcast
8:51 PM 28.0 °F 19.3 °F 19.9 °F 72% 30.25 in 10.0 mi WSW 9.2 mph - N/A   Overcast
9:51 PM 28.0 °F 22.8 °F 19.9 °F 72% 30.25 in 10.0 mi WSW 4.6 mph - N/A   Overcast
10:51 PM 27.0 °F 19.5 °F 21.0 °F 78% 30.28 in 10.0 mi West 6.9 mph - N/A   Overcast
11:51 PM 27.0 °F 23.0 °F 19.9 °F 75% 30.29 in 10.0 mi Variable 3.5 mph - N/A   Overcast